Regional Weather Roundup
Issued by NWS

Home | Current Version | Previous Version | Text Only | Print | Product List | Glossary On
Versions: 1 2 3 4 5 6 7 8 9 10 11 12 13 14 15 16 17 18 19 20 21 22 23 24 25 26 27 28 29 30 31 32 33 34 35 36 37 38 39 40 41 42 43 44 45 46 47 48 49 50
000
ASUS43 KLOT 190010
RWRIL

ILLINOIS REGIONAL WEATHER ROUNDUP
NATIONAL WEATHER SERVICE CHICAGO/ROMEOVILLE IL
700 PM CDT FRI APR 18 2014

NOTE: "FAIR" INDICATES FEW OR NO CLOUDS BELOW 12,000 FEET WITH NO
SIGNIFICANT WEATHER AND/OR OBSTRUCTIONS TO VISIBILITY.

* THESE STATIONS ARE NOT UNDER NWS QUALITY CONTROL. THEY ALSO MAY NOT
  REPORT WEATHER SUCH AS PRECIPITATION OR FOG.

ILZ001-002-007-009-015-016-024-190100-
NORTHWEST ILLINOIS

CITY           SKY/WX    TMP DP  RH WIND       PRES   REMARKS
MOLINE         CLEAR     60  29  30 NE7       30.24F
6HR MIN TEMP:  55; 6HR MAX TEMP:  64;

STERLING*      CLEAR     59  34  38 N5        30.26F
SAVANNA*       CLEAR     60  28  30 NE7       30.27S
$$

ILZ003-004-008-010-011-017-018-190100-
NORTH CENTRAL ILLINOIS

CITY           SKY/WX    TMP DP  RH WIND       PRES   REMARKS
ROCKFORD       CLEAR     57  29  34 NE9       30.29F
6HR MIN TEMP:  54; 6HR MAX TEMP:  61;

FREEPORT*      CLEAR     59  31  34 NE6       30.31S
ROCHELLE*      CLEAR     59  31  35 N8        30.28S
DE KALB*       CLEAR     52  35  52 E13       30.30R
PERU*          CLEAR     61  33  35 CALM      30.26F
$$

ILZ005-006-012>014-019>023-190100-
NORTHEAST ILLINOIS

CITY           SKY/WX    TMP DP  RH WIND       PRES   REMARKS
CHICAGO-OHARE  CLEAR     42  29  59 NE15      30.33F
6HR MIN TEMP:  42; 6HR MAX TEMP:  51;

CHICAGO-MIDWAY CLEAR     43  33  68 NE10      30.33F
6HR MIN TEMP:  43; 6HR MAX TEMP:  51;

AURORA         CLEAR     52  35  52 NE15      30.29S
6HR MIN TEMP:  52; 6HR MAX TEMP:  63;

LANSING*       CLEAR     40  32  74 NE13G20   30.33S
WAUKEGAN       CLEAR     36  29  75 N10       30.35F WCI  28
6HR MIN TEMP:  36; 6HR MAX TEMP:  44;

DUPAGE AIRPORT CLEAR     46  33  60 NE14      30.31R
6HR MIN TEMP:  46; 6HR MAX TEMP:  60;

KANKAKEE*      CLEAR     50  38  63 NE14      30.30R
WHEELING       CLEAR     40  30  67 NE9       30.36F
6HR MIN TEMP:  40; 6HR MAX TEMP:  47;

MORRIS*        CLEAR     53  32  44 E8        30.28S
ROMEOVILLE*    CLEAR     46  33  59 E13G20    30.30S
NORTHERLY ISL    N/A     38  33  82 N16         N/A  WCI  29
$$

LMZ740>746-190100-
SOUTHERN LAKE MICHIGAN

STATION/POSITION SKY/WX   TEMP    WIND        PRES    VSBY  WAVE
                          AIR SEA DIR/SP/G                  HT/PER
                          (F)     (DEG/KT/KT) (MB)    (MI)  (FT/S)
WAUKEGAN HARBOR            36      40/ 13/ 16 1029.1S
HARRISON CRIB              37      30/ 18/ 20   N/A
BURNHAM HARBOR             39      20/ 11/ 15   N/A
CALUMET HARBOR             38      20/ 12/ 16 1028.3S
MICHIGAN CITY              38      20/ 17/ 20   N/A
$$

ILZ025>027-034>036-040-047-049-050-058-095>099-190100-
WEST-CENTRAL ILLINOIS

CITY           SKY/WX    TMP DP  RH WIND       PRES   REMARKS
QUINCY         CLEAR     65  34  31 NE6       30.21F
GALESBURG*     CLEAR     63  31  31 E3        30.24S
MACOMB*        CLEAR     64  29  26 E5        30.25F
JACKSONVILLE*  CLEAR     66  31  26 CALM      30.23S
PITTSFIELD*    CLEAR     66  33  30 NE6       30.23S
$$

ILZ028>032-037-038-041>044-048-051>054-059>061-190100-
CENTRAL ILLINOIS

CITY           SKY/WX    TMP DP  RH WIND       PRES   REMARKS
PONTIAC        CLEAR     64  32  29 NE7       30.25S
BLOOMINGTON    CLEAR     61  27  27 NE9       30.25S
DECATUR        CLEAR     65  34  31 NE6       30.22F
PEORIA         CLEAR     64  25  22 NE6       30.24F
6HR MIN TEMP:  59; 6HR MAX TEMP:  67;

LACON*         CLEAR     62  34  35 N5        30.25S
LINCOLN*       CLEAR     64  29  27 NE5       30.22S
SPRINGFIELD    CLEAR     67  25  20 NE7       30.22F
6HR MIN TEMP:  64; 6HR MAX TEMP:  70;

TAYLORVILLE    CLEAR     63  34  34 NE3       30.22S
$$

ILZ033-039-045-046-055>057-062-063-190100-
EAST-CENTRAL ILLINOIS

CITY           SKY/WX    TMP DP  RH WIND       PRES   REMARKS
CHAMPAIGN      CLEAR     64  31  28 NE8       30.22F
RANTOUL*       CLEAR     66  26  22 CALM      30.24S
MATTOON        CLEAR     65  40  39 N7        30.21F
PARIS*         CLEAR     65  38  36 N3        30.22F
$$

ILZ079-100>102-190100-
SOUTHWEST ILLINOIS

CITY           SKY/WX    TMP DP  RH WIND       PRES   REMARKS
ALTON          CLEAR     66  36  32 VRB3      30.22S
BELLEVILLE     CLEAR     68  44  41 NE2       30.20F
CAHOKIA*       CLEAR     68  43  40 CALM      30.20F
SPARTA*        CLEAR     64  45  48 NE3       30.22S
$$

ILZ064>066-069>071-074>076-080>082-084>086-088>090-092>094-190100-
SOUTH-CENTRAL ILLINOIS

CITY           SKY/WX    TMP DP  RH WIND       PRES   REMARKS
CARBONDALE     CLEAR     67  43  41 NE5       30.20S
6HR MIN TEMP:  67; 6HR MAX TEMP:  72;

CAIRO*         CLEAR     72  41  32 NE9       30.17F
MARION         PTCLDY    66  45  45 NE6       30.20F
MT. VERNON     CLEAR     66  39  37 N5        30.22S
CENTRALIA*       N/A     67  42  40 CALM      30.21S
SALEM*         CLEAR     68  44  42 NE8       30.21S
METROPOLIS*    CLEAR     70  35  27 NE3       30.17S
$$

ILZ067-068-072-073-078-083-087-091-190100-
SOUTHEAST ILLINOIS

CITY           SKY/WX    TMP DP  RH WIND       PRES   REMARKS
FAIRFIELD*     CLEAR     66  46  48 NE6       30.21S
HARRISBURG*    CLEAR     67  43  41 CALM      30.21F
ROBINSON*      CLEAR     66  46  48 N5        30.22R
CARMI*         CLOUDY    70  50  49 CALM      30.20S
$$

ABBREVIATIONS USED IN REMARKS
   TC - TEMPERATURE IN CELSIUS
  WCI - WIND CHILL INDEX
   HX - HEAT INDEX
  VSB - VISIBILITY
$$




USA.gov is the U.S. government's official web portal to all federal, state and local government web resources and services.